Regional Weather Roundup
Issued by NWS

Home | Current Version | Previous Version | Graphics & Text | Print | Product List | Glossary On
Versions: 1 2 3 4 5 6 7 8 9 10 11 12 13 14 15 16 17 18 19 20 21 22 23 24 25 26 27 28 29 30 31 32 33 34 35 36 37 38 39 40 41 42 43 44 45 46 47 48 49 50
000
ASUS43 KDMX 281306
RWRIA

WEATHER ROUNDUP FOR IOWA
NATIONAL WEATHER SERVICE DES MOINES IA
800 AM CDT SUN MAY 28 2017

NOTE: "FAIR" INDICATES FEW OR NO CLOUDS BELOW 12,000 FEET WITH NO
SIGNIFICANT WEATHER AND/OR OBSTRUCTIONS TO VISIBILITY.

* - THESE STATIONS ARE NOT NWS STATIONS...THUS NOT UNDER NWS
QUALITY CONTROL.  THEY ALSO DO NOT REPORT WEATHER SUCH
AS PRECIPITATION OR FOG.

IAZ001>003-012>014-020>022-031>034-043>046-281400-
   NORTHWEST IOWA

CITY           SKY/WX    TMP DP  RH WIND       PRES   REMARKS
CARROLL *      SUNNY     61  55  82 W14       29.86R
CHEROKEE *     SUNNY     58  53  84 NW3       29.87S
DENISON *      SUNNY     57  52  82 SW5       29.89R
LE MARS *      SUNNY     59  52  77 W5        29.89R
ORANGE CITY *  SUNNY     55  52  88 W7        29.88R
SHELDON *      SUNNY     57  50  77 NW8       29.85R
SIOUX CITY     SUNNY     59  51  75 NW7       29.89R
SPENCER        SUNNY     58  52  80 NW8       29.85R
STORM LAKE *   SUNNY     57  50  77 W14       29.86S
$$

IAZ055>058-069>071-079>083-090>094-281400-
   SOUTHWEST IOWA

CITY           SKY/WX    TMP DP  RH WIND       PRES   REMARKS
ATLANTIC *     SUNNY     59  55  88 W7        29.89R
AUDUBON *      SUNNY     59  54  82 W3        29.88R
CLARINDA *     SUNNY     61  57  88 W5        29.91F
COUNCIL BLFS * SUNNY     59  55  88 W10       29.90R
CRESTON *      SUNNY     59  55  88 W9        29.90R
HARLAN  *      SUNNY     59  55  88 W10       29.92R
LAMONI         SUNNY     61  56  83 NW8       29.88R
RED OAK *      SUNNY     61  55  82 W7        29.89S
SHENANDOAH *   SUNNY     61  55  82 W7        29.91S
$$

IAZ047>049-059>061-072>074-084-281400-
   CENTRAL IOWA

CITY           SKY/WX    TMP DP  RH WIND       PRES   REMARKS
AMES           SUNNY     60  55  83 W7        29.84R
ANKENY *       SUNNY     61  55  82 W8        29.86R
BOONE *        SUNNY     59 N/A N/A W10       29.84R
CHARITON *     SUNNY     61  55  82 W9        29.86S
DES MOINES     MOSUNNY   62  54  74 W6        29.85R
GRINNELL*      SUNNY     60  55  84 W12       29.85R
KNOXVILLE *    SUNNY     61  55  82 NW10      29.84R
MARSHALLTOWN   SUNNY     60  56  86 W5        29.82S
NEWTON *       SUNNY     61  55  82 NW8       29.84R
PELLA *        SUNNY     62  55  78 NW7       29.86R
PERRY *          N/A     59  56  87 W7        29.85S
$$

IAZ004>006-015-016-023>025-035-036-281400-
   NORTH CENTRAL IOWA

CITY           SKY/WX    TMP DP  RH WIND       PRES   REMARKS
ALGONA *       SUNNY     61  52  72 NW15G22   29.83R
CLARION *      SUNNY     59  55  88 W13       29.84R
ESTHERVILLE    SUNNY     57  51  80 NW14      29.83R
FORT DODGE *   SUNNY     57  54  88 W5        29.86R
MASON CITY     SUNNY     60  51  72 W16       29.83R
FOREST CITY *    N/A     61  45  55 NW10      29.82R
WEBSTER CITY * SUNNY     61  54  77 W14       29.83R
IOWA FALLS *     N/A     61  55  79 W10       29.84R
$$

IAZ007>011-017>019-026>030-037>042-050>054-066-281400-
   NORTHEAST IOWA

CITY           SKY/WX    TMP DP  RH WIND       PRES   REMARKS
CEDAR RAPIDS   CLOUDY    57  56  96 NW6       29.81R
CHARLES CITY * SUNNY     61  57  88 W12       29.81R
DECORAH *      SUNNY     61  54  77 CALM      29.78S
DUBUQUE        CLOUDY    61  54  77 NW5       29.80R
MONTICELLO *   CLOUDY    63  57  82 CALM      29.81R
OELWEIN *      SUNNY     61  57  88 W8        29.81S
WATERLOO       SUNNY     61  54  77 W8        29.80S
$$

IAZ064-065-067-068-078-281400-
   EAST CENTRAL IOWA

CITY           SKY/WX    TMP DP  RH WIND       PRES   REMARKS
DAVENPORT      CLOUDY    61  57  87 NW7       29.80R
IOWA CITY      MOSUNNY   62  56  80 NW7       29.83R
MT. PLEASANT * MOSUNNY   61  55  78 NW8       29.84R
MUSCATINE *    PTSUNNY   63  57  82 CALM      29.82R
QUAD CITIES    PTSUNNY   65  57  75 NW8       29.79R
$$

IAZ062-063-075>077-085>089-095>099-281400-
   SOUTHEAST IOWA

CITY           SKY/WX    TMP DP  RH WIND       PRES   REMARKS
BURLINGTON     PTSUNNY   62  60  93 NW5       29.81R
FAIRFIELD *    SUNNY     61  54  77 NW5       29.83S
FORT MADISON * CLOUDY    63  59  88 NW10      29.83R
KEOKUK *       CLOUDY    61  57  88 NW10      29.82R FOG
OSKALOOSA *      N/A     60  55  83 NW8       29.85R
CENTERVILLE *    N/A     61  55  82 CALM      29.88R
OTTUMWA        MOSUNNY   60  56  86 W6        29.84R
WASHINGTON *   SUNNY     63  57  82 NW8       29.84R
$$

ABBREVIATIONS USED IN REMARKS
   TC - TEMPERATURES IN CELSIUS
  WCI - WIND CHILL INDEX
   HX - HEAT INDEX
  VSB - VISIBILITY
$$





USA.gov is the U.S. government's official web portal to all federal, state and local government web resources and services.